[Date Prev][Date Next][Thread Prev][Thread Next] - [Date Index][Thread Index][Author Index]

2 Line ISS Keps 1-12



ISS
1 25544U 98067A   04012.15768412  .00016103  00000-0  16105-3 0    56
2 25544  51.6290  44.8077 0007869  40.1843  73.7154 15.65727512293681


----
Via the sarex mailing list at AMSAT.ORG courtesy of AMSAT-NA.
To unsubscribe, send "unsubscribe sarex" to Majordomo@amsat.org



AMSAT Top AMSAT Home